GW1515 Weather Reports


Display with metric or nautical units.
time (UTC)temp
F
wind
direction
speed
MPH
gust
MPH
rain 1hr
in
rain 24hr
in
rain mn
in
humidity
%
barometer
mb
20260509044128 55 208 5.0 9.0 0.00 0.00 0.00 88 1006.4
20260509043624 55 238 2.0 9.0 0.00 0.00 0.00 88 1006.5
20260509043120 55 213 4.0 6.0 0.00 0.00 0.00 88 1006.5
20260509042616 55 203 7.0 12.0 0.00 0.00 0.00 87 1006.7
20260509042112 55 201 3.0 8.0 0.00 0.00 0.00 87 1006.5
20260509041609 55 225 1.0 7.0 0.00 0.00 0.00 86 1006.4
20260509041107 55 203 3.0 9.0 0.00 0.00 0.00 86 1006.6
20260509040605 56 225 4.0 10.0 0.00 0.00 0.00 85 1006.4
20260509035558 56 199 4.0 9.0 0.00 0.00 0.00 84 1006.6
20260509035055 56 217 8.0 13.0 0.00 0.00 0.00 83 1006.6
20260509034553 56 166 8.0 10.0 0.00 0.00 0.00 83 1006.6
20260509034050 57 194 3.0 15.0 0.00 0.00 0.00 82 1006.7
20260509033547 57 187 7.0 11.0 0.00 0.00 0.00 81 1006.7
20260509033044 57 221 5.0 8.0 0.00 0.00 0.00 80 1006.6
20260509032541 57 244 5.0 14.0 0.00 0.00 0.00 79 1007.0
20260509032038 57 223 6.0 12.0 0.00 0.00 0.00 79 1006.6
20260509031536 57 218 5.0 11.0 0.00 0.00 0.00 78 1006.5
20260509031033 57 209 2.0 13.0 0.00 0.00 0.00 77 1006.6
20260509030531 58 210 6.0 13.0 0.00 0.00 0.00 77 1006.8
20260509030027 58 204 3.0 11.0 0.00 0.00 0.00 76 1006.7
20260509025523 58 178 2.0 13.0 0.00 0.00 0.00 76 1006.8
20260509025019 58 220 2.0 9.0 0.00 0.00 0.00 76 1006.7
20260509024515 58 225 2.0 10.0 0.00 0.00 0.00 76 1006.6
20260509024012 58 197 3.0 7.0 0.00 0.00 0.00 76 1006.8
20260509023509 58 246 0.0 9.0 0.00 0.00 0.00 76 1006.7
20260509023006 58 199 3.0 9.0 0.00 0.00 0.00 76 1007.0
20260509022502 58 210 3.0 7.0 0.00 0.00 0.00 76 1006.8
20260509022000 59 188 1.0 7.0 0.00 0.00 0.00 75 1006.9
20260509021457 59 212 3.0 8.0 0.00 0.00 0.00 75 1007.0
20260509020954 59 215 7.0 10.0 0.00 0.00 0.00 75 1007.0
20260509020453 59 215 8.0 10.0 0.00 0.00 0.00 74 1006.7
20260509015949 59 213 5.0 7.0 0.00 0.00 0.00 74 1006.5
20260509015448 60 208 3.0 8.0 0.00 0.00 0.00 73 1006.6
20260509014944 60 183 6.0 9.0 0.00 0.00 0.00 72 1006.3
20260509014441 60 195 6.0 10.0 0.00 0.00 0.00 70 1006.3
20260509013937 60 173 4.0 11.0 0.00 0.00 0.00 69 1006.3
20260509013434 60 220 7.0 12.0 0.00 0.00 0.00 66 1006.6
20260509012930 61 177 3.0 7.0 0.00 0.00 0.00 63 1006.2
20260509012427 61 207 3.0 6.0 0.00 0.00 0.00 61 1006.5
20260509011924 61 146 2.0 4.0 0.00 0.00 0.00 60 1006.2
20260509011421 62 214 3.0 4.0 0.00 0.00 0.00 60 1006.2
20260509010919 62 169 2.0 4.0 0.00 0.00 0.00 59 1006.1
20260509010416 62 215 2.0 5.0 0.00 0.00 0.00 59 1006.4
20260509005913 62 274 2.0 9.0 0.00 0.00 0.00 59 1006.4
20260509005411 62 200 4.0 7.0 0.00 0.00 0.00 58 1006.3
20260509004911 63 239 3.0 7.0 0.00 0.00 0.00 58 1006.2
20260509004408 63 226 4.0 9.0 0.00 0.00 0.00 57 1006.4
20260509003906 63 233 2.0 6.0 0.00 0.00 0.00 57 1006.3
20260509003403 63 212 3.0 7.0 0.00 0.00 0.00 56 1006.2
20260509002900 63 235 3.0 7.0 0.00 0.00 0.00 56 1006.3
20260509002358 64 192 3.0 5.0 0.00 0.00 0.00 54 1006.3
20260509001855 64 211 3.0 8.0 0.00 0.00 0.00 54 1006.4
20260509001351 64 196 4.0 5.0 0.00 0.00 0.00 54 1006.3
20260509000848 64 240 2.0 8.0 0.00 0.00 0.00 54 1006.5
20260509000348 64 207 2.0 5.0 0.00 0.00 0.00 54 1006.4
20260508235842 64 211 3.0 6.0 0.00 0.00 0.00 53 1006.4
20260508235339 64 234 0.0 9.0 0.00 0.00 0.00 54 1006.4
20260508234836 65 208 4.0 6.0 0.00 0.00 0.00 53 1006.4
20260508234333 65 228 3.0 5.0 0.00 0.00 0.00 52 1006.5
20260508233831 66 235 3.0 8.0 0.00 0.00 0.00 51 1006.5
20260508233330 66 212 1.0 8.0 0.00 0.00 0.00 52 1006.5
20260508232826 66 214 3.0 8.0 0.00 0.00 0.00 52 1006.5
20260508232323 65 252 6.0 11.0 0.00 0.00 0.00 52 1006.5
20260508231822 66 207 3.0 9.0 0.00 0.00 0.00 52 1006.4
20260508231317 67 213 3.0 5.0 0.00 0.00 0.00 51 1006.4
20260508230814 66 233 3.0 8.0 0.00 0.00 0.00 52 1006.5
20260508230311 66 222 2.0 5.0 0.00 0.00 0.00 52 1006.5
20260508225809 67 221 3.0 7.0 0.00 0.00 0.00 50 1006.6
20260508225306 67 245 3.0 9.0 0.00 0.00 0.00 49 1006.4
20260508224803 66 243 4.0 10.0 0.00 0.00 0.00 48 1006.5
20260508224300 66 205 3.0 7.0 0.00 0.00 0.00 47 1006.6
20260508223758 67 203 4.0 7.0 0.00 0.00 0.00 46 1006.4
20260508223255 67 206 6.0 9.0 0.00 0.00 0.00 46 1006.7
20260508222752 68 235 3.0 6.0 0.00 0.00 0.00 47 1006.6
20260508222249 67 237 2.0 9.0 0.00 0.00 0.00 47 1006.6
20260508221746 66 216 3.0 6.0 0.00 0.00 0.00 50 1006.6
20260508221242 66 198 9.0 11.0 0.00 0.00 0.00 49 1006.7
20260508220738 66 230 6.0 12.0 0.00 0.00 0.00 47 1006.7
20260508220234 67 268 3.0 11.0 0.00 0.00 0.00 47 1006.8
20260508215731 66 242 3.0 7.0 0.00 0.00 0.00 50 1006.7
20260508215227 66 230 5.0 13.0 0.00 0.00 0.00 49 1006.8
20260508214725 68 207 10.0 13.0 0.00 0.00 0.00 48 1006.7
20260508214222 66 208 6.0 7.0 0.00 0.00 0.00 49 1006.8
20260508213718 66 195 8.0 12.0 0.00 0.00 0.00 52 1006.8
20260508213215 66 219 4.0 9.0 0.00 0.00 0.00 52 1006.5
20260508212712 66 224 7.0 9.0 0.00 0.00 0.00 50 1006.5
20260508212208 68 165 1.0 5.0 0.00 0.00 0.00 50 1006.6
20260508211704 66 216 2.0 11.0 0.00 0.00 0.00 54 1006.9
20260508211200 65 125 2.0 9.0 0.00 0.00 0.00 54 1006.9
20260508210657 65 60 2.0 8.0 0.00 0.00 0.00 56 1006.8
20260508210154 65 150 5.0 9.0 0.00 0.00 0.00 55 1006.8
20260508205651 65 211 5.0 8.0 0.00 0.00 0.00 56 1007.0
20260508205147 65 196 3.0 8.0 0.00 0.00 0.00 56 1007.0
20260508204644 66 186 2.0 9.0 0.00 0.00 0.00 55 1007.1
20260508204140 66 179 4.0 10.0 0.00 0.00 0.00 55 1007.0
20260508203636 66 181 4.0 12.0 0.00 0.00 0.00 56 1007.0
20260508203132 68 139 5.0 10.0 0.00 0.00 0.00 51 1007.1
20260508202629 67 135 2.0 9.0 0.00 0.00 0.00 51 1007.2
20260508202126 67 212 9.0 13.0 0.00 0.00 0.00 50 1007.3
20260508201623 67 186 3.0 6.0 0.00 0.00 0.00 51 1007.4
20260508201119 66 161 1.0 9.0 0.00 0.00 0.00 52 1007.3
20260508200616 67 213 4.0 8.0 0.00 0.00 0.00 51 1007.6
20260508200112 67 221 5.0 6.0 0.00 0.00 0.00 49 1007.8
20260508195609 67 199 3.0 7.0 0.00 0.00 0.00 49 1007.7
20260508195105 66 205 7.0 7.0 0.00 0.00 0.00 51 1007.7
20260508194602 68 196 5.0 6.0 0.00 0.00 0.00 45 1007.8
20260508194059 68 240 2.0 5.0 0.00 0.00 0.00 44 1008.2
20260508193556 67 206 5.0 9.0 0.00 0.00 0.00 46 1008.0
20260508193053 66 187 2.0 7.0 0.00 0.00 0.00 50 1007.9
20260508192549 65 165 3.0 10.0 0.00 0.00 0.00 54 1008.1
20260508192046 64 123 5.0 9.0 0.00 0.00 0.00 54 1008.2
20260508191543 64 114 6.0 8.0 0.00 0.00 0.00 54 1008.4
20260508191039 66 211 3.0 8.0 0.00 0.00 0.00 53 1008.2
20260508190537 66 125 3.0 10.0 0.00 0.00 0.00 50 1008.4
20260508190033 65 139 9.0 11.0 0.00 0.00 0.00 52 1008.4
20260508185531 65 177 4.0 6.0 0.00 0.00 0.00 50 1008.4
20260508185028 65 110 4.0 11.0 0.00 0.00 0.00 48 1008.4
20260508184526 65 194 3.0 7.0 0.00 0.00 0.00 54 1008.4
20260508184022 65 133 10.0 11.0 0.00 0.00 0.00 56 1008.7
20260508183519 68 54 1.0 3.0 0.00 0.00 0.00 50 1008.7
20260508183015 66 177 3.0 7.0 0.00 0.00 0.00 51 1008.8
20260508182511 66 186 5.0 10.0 0.00 0.00 0.00 52 1008.8
20260508182008 65 240 2.0 9.0 0.00 0.00 0.00 59 1008.8
20260508181503 64 116 5.0 7.0 0.00 0.00 0.00 60 1009.1
20260508181001 64 144 3.0 10.0 0.00 0.00 0.00 62 1008.9
20260508180458 64 119 5.0 12.0 0.00 0.00 0.00 62 1009.0
20260508175954 64 139 3.0 10.0 0.00 0.00 0.00 60 1009.1
20260508175450 65 195 5.0 7.0 0.00 0.00 0.00 60 1009.0
20260508174948 64 185 3.0 8.0 0.00 0.00 0.00 60 1009.3
20260508174445 64 205 6.0 7.0 0.00 0.00 0.00 59 1009.3
20260508173942 64 91 1.0 7.0 0.00 0.00 0.00 59 1009.1
20260508173439 64 191 2.0 8.0 0.00 0.00 0.00 61 1009.3
20260508172935 65 165 4.0 6.0 0.00 0.00 0.00 60 1009.3
20260508172432 65 152 6.0 7.0 0.00 0.00 0.00 61 1009.6
20260508171928 64 194 8.0 11.0 0.00 0.00 0.00 63 1009.9
20260508171425 64 200 4.0 9.0 0.00 0.00 0.00 64 1009.8
20260508170922 64 194 4.0 7.0 0.00 0.00 0.00 67 1009.7
20260508170419 64 205 6.0 10.0 0.00 0.00 0.00 66 1010.1
20260508165916 63 231 8.0 8.0 0.00 0.00 0.00 67 1009.9
20260508165414 64 191 6.0 10.0 0.00 0.00 0.00 65 1010.1
20260508164909 63 156 4.0 9.0 0.00 0.00 0.00 67 1009.9
20260508164407 63 203 2.0 9.0 0.00 0.00 0.00 66 1010.1
20260508163904 62 180 1.0 8.0 0.00 0.00 0.00 71 1010.2
20260508163402 62 163 2.0 9.0 0.00 0.00 0.00 69 1010.4
20260508162857 61 219 5.0 11.0 0.00 0.00 0.00 71 1010.4
20260508162354 61 163 5.0 6.0 0.00 0.00 0.00 70 1010.5
20260508161851 62 252 0.0 4.0 0.00 0.00 0.00 69 1010.7
20260508161349 60 229 2.0 7.0 0.00 0.00 0.00 72 1010.5
20260508160846 60 162 4.0 7.0 0.00 0.00 0.00 70 1010.5
20260508160344 61 221 3.0 4.0 0.00 0.00 0.00 72 1010.5
20260508155840 60 80 2.0 6.0 0.00 0.00 0.00 70 1010.6
20260508155338 61 166 5.0 8.0 0.00 0.00 0.00 70 1010.6
20260508154834 61 105 4.0 10.0 0.00 0.00 0.00 71 1010.7
20260508154332 60 149 6.0 9.0 0.00 0.00 0.00 72 1010.7
20260508153828 60 196 2.0 3.0 0.00 0.00 0.00 72 1010.9
20260508153326 60 321 1.0 4.0 0.00 0.00 0.00 73 1010.6
20260508152821 60 204 5.0 7.0 0.00 0.00 0.00 72 1010.7
20260508152318 60 177 4.0 7.0 0.00 0.00 0.00 74 1010.9
20260508151814 61 190 3.0 4.0 0.00 0.00 0.00 70 1010.8
20260508151312 60 203 5.0 8.0 0.00 0.00 0.00 72 1010.8
20260508150808 60 142 5.0 7.0 0.00 0.00 0.00 74 1011.0
20260508150305 61 153 5.0 8.0 0.00 0.00 0.00 73 1011.0
20260508145802 59 171 2.0 9.0 0.00 0.00 0.00 75 1011.0
20260508145257 60 135 5.0 8.0 0.00 0.00 0.00 74 1010.8
20260508144754 59 86 0.0 4.0 0.00 0.00 0.00 77 1011.1
20260508144252 59 232 1.0 4.0 0.00 0.00 0.00 76 1011.1
20260508143749 58 126 3.0 5.0 0.00 0.00 0.00 79 1011.0
20260508143246 57 223 3.0 4.0 0.00 0.00 0.00 81 1011.1
20260508142742 57 206 5.0 9.0 0.00 0.00 0.00 79 1010.9
20260508142240 57 185 0.0 7.0 0.00 0.00 0.00 81 1011.0
20260508141736 57 161 3.0 8.0 0.00 0.00 0.00 81 1011.0
20260508141234 57 185 2.0 8.0 0.00 0.00 0.00 80 1011.1
20260508140731 56 177 4.0 6.0 0.00 0.00 0.00 81 1011.1
20260508140227 56 185 3.0 5.0 0.00 0.00 0.00 83 1011.0
20260508135724 56 217 7.0 7.0 0.00 0.00 0.00 81 1011.2
20260508135220 55 162 3.0 7.0 0.00 0.00 0.00 84 1011.2
20260508134715 55 203 4.0 6.0 0.00 0.00 0.00 84 1011.2
20260508134213 54 140 2.0 6.0 0.00 0.00 0.00 86 1011.2
20260508133709 54 150 5.0 7.0 0.00 0.00 0.00 86 1011.4
20260508133207 53 221 4.0 5.0 0.00 0.00 0.00 86 1011.2
20260508132705 53 157 2.0 3.0 0.00 0.00 0.00 87 1011.1
20260508132202 53 141 3.0 6.0 0.00 0.00 0.00 87 1011.4
20260508131657 53 157 4.0 7.0 0.00 0.00 0.00 87 1011.2
20260508131154 53 106 3.0 5.0 0.00 0.00 0.00 87 1011.2
20260508130650 52 124 3.0 7.0 0.00 0.00 0.00 87 1011.3
20260508130148 51 109 3.0 7.0 0.00 0.00 0.00 88 1011.3
20260508125643 50 131 2.0 5.0 0.00 0.00 0.00 89 1011.2
20260508125140 52 109 2.0 3.0 0.00 0.00 0.00 89 1011.1
20260508124638 50 126 3.0 5.0 0.00 0.00 0.00 90 1011.2
20260508124135 49 115 4.0 6.0 0.00 0.00 0.00 90 1011.2
20260508123634 49 106 4.0 5.0 0.00 0.00 0.00 90 1011.3
20260508123131 49 114 2.0 4.0 0.00 0.00 0.00 89 1011.2
20260508122627 49 135 3.0 5.0 0.00 0.00 0.00 88 1011.6
20260508122124 49 160 3.0 5.0 0.00 0.00 0.00 88 1011.3
20260508121622 49 113 4.0 6.0 0.00 0.00 0.00 88 1011.2
20260508121120 49 115 3.0 5.0 0.00 0.00 0.00 89 1011.1
20260508120617 49 152 3.0 6.0 0.00 0.00 0.00 90 1011.3
20260508120115 48 123 3.0 4.0 0.00 0.00 0.00 91 1011.2
20260508115612 47 121 4.0 5.0 0.00 0.00 0.00 91 1011.1
20260508115109 47 128 4.0 6.0 0.00 0.00 0.00 92 1011.2
20260508114606 47 95 2.0 3.0 0.00 0.00 0.00 92 1011.2
20260508114102 47 14 1.0 3.0 0.00 0.00 0.00 92 1011.2
20260508113600 46 123 1.0 3.0 0.00 0.00 0.00 92 1011.2
20260508113058 46 108 2.0 3.0 0.00 0.00 0.00 92 1010.9
20260508112553 46 136 2.0 4.0 0.00 0.00 0.00 92 1010.9
20260508112051 46 101 2.0 3.0 0.00 0.00 0.00 92 1010.9
20260508111548 46 96 0.0 3.0 0.00 0.00 0.00 92 1011.1
20260508111045 46 78 2.0 3.0 0.00 0.00 0.00 92 1010.8
20260508110543 46 97 0.0 4.0 0.00 0.00 0.00 92 1011.0
20260508110038 46 31 3.0 4.0 0.00 0.00 0.00 92 1011.0
20260508105533 46 80 2.0 4.0 0.00 0.00 0.00 92 1010.9
20260508105031 46 52 2.0 3.0 0.00 0.00 0.00 92 1010.9
20260508104529 46 52 1.0 3.0 0.00 0.00 0.00 92 1010.7
20260508104025 46 34 1.0 2.0 0.00 0.00 0.00 92 1010.9
20260508103522 46 111 1.0 3.0 0.00 0.00 0.00 92 1010.7
20260508103019 46 104 2.0 3.0 0.00 0.00 0.00 91 1010.7
20260508102517 46 93 1.0 3.0 0.00 0.00 0.00 91 1011.0
20260508102015 46 119 1.0 3.0 0.00 0.00 0.00 91 1011.0
20260508101512 46 169 3.0 4.0 0.00 0.00 0.00 92 1010.9
20260508101009 45 198 3.0 3.0 0.00 0.00 0.00 93 1010.9
20260508100507 45 193 2.0 3.0 0.00 0.00 0.00 93 1010.7
20260508100004 44 103 2.0 2.0 0.00 0.00 0.00 93 1011.1
20260508095501 44 122 2.0 2.0 0.00 0.00 0.00 93 1010.7
20260508094957 44 116 0.0 3.0 0.00 0.00 0.00 93 1011.1
20260508094454 44 89 0.0 2.0 0.00 0.00 0.00 93 1011.0
20260508093951 44 89 0.0 2.0 0.00 0.00 0.00 92 1011.3
20260508093448 44 32 0.0 2.0 0.00 0.00 0.00 92 1011.2
20260508092946 44 135 0.0 2.0 0.00 0.00 0.00 92 1011.4
20260508092443 45 282 0.0 2.0 0.00 0.00 0.00 92 1011.4
20260508091942 45 64 0.0 2.0 0.00 0.00 0.00 92 1011.2
20260508091438 45 12 1.0 2.0 0.00 0.00 0.00 92 1011.2
20260508090935 44 39 0.0 2.0 0.00 0.00 0.00 92 1011.3
20260508090434 44 44 0.0 1.0 0.00 0.00 0.00 92 1011.4
20260508085929 44 190 0.0 2.0 0.00 0.00 0.00 92 1011.3
20260508085426 44 157 0.0 2.0 0.00 0.00 0.00 91 1011.3
20260508084923 44 152 0.0 2.0 0.00 0.00 0.00 91 1011.3
20260508084420 45 0 1.0 2.0 0.00 0.00 0.00 91 1011.4
20260508083918 45 104 0.0 1.0 0.00 0.00 0.00 89 1011.2
20260508083415 46 358 1.0 2.0 0.00 0.00 0.00 89 1011.3
20260508082914 46 5 1.0 3.0 0.00 0.00 0.00 88 1011.4
20260508082412 47 288 0.0 2.0 0.00 0.00 0.00 87 1011.4
20260508081910 48 294 0.0 3.0 0.00 0.00 0.00 87 1011.5
20260508081407 47 251 2.0 3.0 0.00 0.00 0.00 87 1011.3
20260508080903 48 207 2.0 3.0 0.00 0.00 0.00 86 1011.3
20260508080401 48 200 0.0 3.0 0.00 0.00 0.00 86 1011.3
20260508075857 48 200 2.0 5.0 0.00 0.00 0.00 86 1011.2
20260508075355 47 202 2.0 3.0 0.00 0.00 0.00 88 1011.2
20260508074852 47 166 0.0 1.0 0.00 0.00 0.00 89 1011.3
20260508074349 46 180 0.0 1.0 0.00 0.00 0.00 89 1011.4
20260508073846 46 38 0.0 1.0 0.00 0.00 0.00 88 1011.5
20260508073344 47 309 0.0 2.0 0.00 0.00 0.00 87 1011.7
20260508072840 48 282 0.0 3.0 0.00 0.00 0.00 87 1011.7
20260508072337 47 246 1.0 3.0 0.00 0.00 0.00 87 1011.5
20260508071834 48 176 0.0 2.0 0.00 0.00 0.00 86 1011.6
20260508071333 48 277 1.0 3.0 0.00 0.00 0.00 86 1011.6
20260508070830 48 254 2.0 3.0 0.00 0.00 0.00 86 1011.6
20260508070328 48 196 1.0 3.0 0.00 0.00 0.00 87 1011.7
20260508065825 48 199 1.0 4.0 0.00 0.00 0.00 86 1011.5
20260508065323 48 258 2.0 4.0 0.00 0.00 0.00 87 1011.6
20260508064821 48 255 1.0 3.0 0.00 0.00 0.00 86 1011.7
20260508064318 48 178 0.0 5.0 0.00 0.00 0.00 86 1011.8
20260508063816 48 252 0.0 3.0 0.00 0.00 0.00 86 1011.9
20260508063314 48 288 1.0 2.0 0.00 0.00 0.00 86 1011.7
20260508062810 48 253 2.0 4.0 0.00 0.00 0.00 85 1011.7
20260508062308 48 255 2.0 3.0 0.00 0.00 0.00 85 1011.7
20260508061804 48 229 1.0 3.0 0.00 0.00 0.00 85 1011.7
20260508061302 48 268 0.0 3.0 0.00 0.00 0.00 85 1011.7
20260508060758 48 235 0.0 3.0 0.00 0.00 0.00 84 1012.0
20260508060256 48 215 0.0 5.0 0.00 0.00 0.00 84 1011.9
20260508055751 49 264 2.0 3.0 0.00 0.00 0.00 83 1011.8
20260508055249 49 251 2.0 4.0 0.00 0.00 0.00 83 1011.8
20260508054745 49 252 1.0 3.0 0.00 0.00 0.00 83 1011.6
20260508054243 49 246 2.0 7.0 0.00 0.00 0.00 82 1011.7
20260508053740 49 249 2.0 5.0 0.00 0.00 0.00 83 1011.7
20260508053237 48 231 1.0 3.0 0.00 0.00 0.00 83 1011.6
20260508052734 48 239 2.0 3.0 0.00 0.00 0.00 83 1011.5
20260508052231 48 219 0.0 2.0 0.00 0.00 0.00 83 1011.7
20260508051727 48 266 1.0 2.0 0.00 0.00 0.00 83 1011.5
20260508051223 48 257 0.0 1.0 0.00 0.00 0.00 83 1011.7
20260508050720 48 229 0.0 1.0 0.00 0.00 0.00 83 1011.6
20260508050217 48 252 0.0 2.0 0.00 0.00 0.00 83 1011.6
20260508045712 49 159 0.0 2.0 0.00 0.00 0.00 82 1011.7
20260508045210 49 259 1.0 2.0 0.00 0.00 0.00 82 1011.5
20260508044708 49 261 0.0 2.0 0.00 0.00 0.00 82 1011.6